Regional Weather Roundup
Issued by NWS Kansas City/Pleasant Hill, MO

Home | Current Version | Previous Version | Text Only | Print | Product List | Glossary On
Versions: 1 2 3 4 5 6 7 8 9 10 11 12 13 14 15 16 17 18 19 20 21 22 23 24 25 26 27 28 29 30 31 32 33 34 35 36 37 38 39 40 41 42 43 44 45 46 47 48 49 50
000
ASUS43 KEAX 020310
RWREAX

WEATHER ROUNDUP FOR EASTERN KANSAS AND NORTHWEST MISSOURI
NATIONAL WEATHER SERVICE KANSAS CITY/PLEASANT HILL MO
1000 PM CDT WED JUL 01 2015

KSZ040-057-103>105-MOZ028-029-037-043-020400-
...KANSAS CITY METROPOLITAN AREA...

CITY           SKY/WX    TMP DP  RH WIND       PRES   REMARKS
K.C. INTL      CLOUDY    79  74  84 E12       29.83R
K.C. DOWNTOWN  CLOUDY    78  73  84 NE9       29.81R
LEES SUMMIT    CLOUDY    73  65  75 NE6       29.81F
OLATHE - IXD   MOCLDY    79  69  71 NE8       29.80R
OLATHE - OJC   MOCLDY    75  68  78 NE9       29.79R
LAWRENCE       MOCLDY    80  74  81 NE10      29.80R

$$

MOZ001>008-011>017-020>025-030>033-038>040-044>046-053-054-020400-
...NORTHERN AND CENTRAL MISSOURI...

CITY           SKY/WX    TMP DP  RH WIND       PRES   REMARKS
ST. JOSEPH     CLOUDY    78  71  79 NE13      29.84R
MOSBY          MOCLDY    79  72  78 NE5       29.83R
HARRISONVILLE  TSTM      72  68  88 S12G21    29.81R
WARRENSBURG    CLOUDY    72  70  94 N5        29.81F
WHITEMAN AFB   MOCLDY    73  71  93 NE8       29.81R
CLINTON        TSTM      82  79  89 E12       29.76F HX  93
SEDALIA        CLOUDY    71  68  90 CALM      29.84R
WARSAW         NOT AVBL
CHILLICOTHE      N/A     76  71  85 NE9G17    29.87R
KIRKSVILLE     LGT RAIN  72  67  84 E9        29.90R

$$

MOZ041-047>049-056>058-063>065-088>090-097-020400-
...EASTERN AND SOUTHERN MISSOURI...

CITY           SKY/WX    TMP DP  RH WIND       PRES   REMARKS
ST. LOUIS INTL LGT RAIN  73  68  84 E6        29.87S
SPIRIT OF STL  LGT RAIN  73  70  88 E5        29.87R
COLUMBIA       LGT RAIN  71  68  90 E12       29.87R
JEFFERSON CITY HVY RAIN  72  70  93 E8        29.86R FOG
MEXICO         PTCLDY   N/A N/A N/A E6        29.85S
ROLLA          CLOUDY    75  72  90 SE7       29.85R THUNDER
LEBANON        CLOUDY    77  73  88 S8        29.85R
OSAGE BEACH    CLOUDY    75  72  88 S9        29.78S THUNDER
SPRINGFIELD    MOCLDY    79  73  82 S9        29.85R
BRANSON        PTCLDY    81  70  69 CALM      29.86F
JOPLIN         PTCLDY    82  71  69 SW21      29.80F
WEST PLAINS    MOCLDY    76  73  91 SE6       29.88S

$$

IAZ060-094-KSZ022-034>040-054-083-096-NEZ052-066-093-020400-
...KANSAS...SOUTHEAST NEBRASKA AND IOWA...

CITY           SKY/WX    TMP DP  RH WIND       PRES   REMARKS
TOPEKA         CLEAR     80  75  84 NE8       29.81R
MANHATTAN      CLEAR     83  73  72 NE12      29.81R
EMPORIA        CLEAR     79  73  82 N7        29.78R
CHANUTE        PTCLDY    84  72  67 S15       29.77S
WICHITA        PTCLDY    84  66  54 S3        29.79R
OMAHA          PTCLDY    73  66  78 NE8       29.90R
LINCOLN        CLOUDY    78  69  73 E10       29.89R
FALLS CITY     PTCLDY    77  71  82 NE10      29.85R
LAMONI         CLOUDY    70  66  87 NE9       29.91R
DES MOINES     MOCLDY    69  56  62 E9        29.94R

$$



USA.gov is the U.S. government's official web portal to all federal, state and local government web resources and services.